Regional Weather Roundup
Issued by NWS

Home | Current Version | Previous Version | Graphics & Text | Print | Product List | Glossary On
Versions: 1 2 3 4 5 6 7 8 9 10 11 12 13 14 15 16 17 18 19 20 21 22 23 24 25 26 27 28 29 30 31 32 33 34 35 36 37 38 39 40 41 42 43 44 45 46 47 48 49 50
000
ASUS43 KFSD 171702
RWRSD

WEATHER ROUNDUP FOR SOUTH DAKOTA
NATIONAL WEATHER SERVICE SIOUX FALLS SD
1200 PM CDT FRI APR 17 2015

NOTE: "FAIR" INDICATES FEW OR NO CLOUDS BELOW 12,000 FEET WITH NO
SIGNIFICANT WEATHER AND/OR OBSTRUCTIONS TO VISIBILITY.


SDZ001>005-009-010-012>017-171800-
NORTHWEST AND NORTH CENTRAL SOUTH DAKOTA

CITY           SKY/WX    TMP DP  RH WIND       PRES   REMARKS
BUFFALO          N/A     59  24  26 N5        30.15F
FAITH            N/A     62  21  20 NE5       30.19F
MOBRIDGE       SUNNY     64  24  21 NW6       30.17F
$$

SDZ012>016-024>037-041>051-057-063-072>074-171800-
SOUTHWEST AND SOUTH CENTRAL SOUTH DAKOTA

CITY           SKY/WX    TMP DP  RH WIND       PRES   REMARKS
RAPID CTY ARPT CLOUDY    53  33  46 N7        30.21S
PIERRE         SUNNY     64  34  32 CALM      30.16F
CUSTER         CLOUDY    43  31  62 NE13      30.21S
PHILIP         CLOUDY    60  33  36 NE10      30.18F
PINE RIDGE     LGT RAIN  49  38  65 NE7       30.17R
WINNER         FAIR      66  41  40 NE14G20   30.15R
$$

SDZ004>011-016>023-039-040-171800-
NORTHEAST SOUTH DAKOTA

CITY           SKY/WX    TMP DP  RH WIND       PRES   REMARKS
ABERDEEN       SUNNY     66  26  22 N8        30.16F
WATERTOWN      SUNNY     66  20  17 N15       30.14F
BROOKINGS      SUNNY     66  34  30 N12       30.13F
SISSETON         N/A     66  21  18 N7        30.14F
$$

SDZ017-020-022-023-036>040-048>070-171800-
SOUTHEAST SOUTH DAKOTA

CITY           SKY/WX    TMP DP  RH WIND       PRES   REMARKS
SIOUX FALLS    MOSUNNY   71  45  39 E5        30.11F
HURON          SUNNY     69  29  22 NE7       30.14F
MITCHELL       SUNNY     70  39  32 MISG      30.13F
YANKTON        PTSUNNY   64  46  52 NE6       30.11R
$$

ABBREVIATIONS USED IN REMARKS
   TC - TEMPERATURE IN CELSIUS
  WCI - WIND CHILL INDEX
   HX - HEAT INDEX
  VSB - VISIBILITY



USA.gov is the U.S. government's official web portal to all federal, state and local government web resources and services.